Location: Équennes
(49.7375°N, 1.9622°E)
Time: 20:12:11
(UTC+00:00)

Daily predictions for brighter satellites

Satellite Brightness Start Highest point End
(mag) Time Altitude Azimuth Time Altitude Azimuth Time Altitude Azimuth
Cosmos 2263 Rocket 2.6 17:08:34 10° NNW 17:13:50 40° NE 17:19:03 10° ESE
Lacrosse 4 Rocket 4.0 17:13:08 10° NW 17:14:58 12° NNW 17:16:49 10° N
ATLAS 5 CENTAUR R/B 1.5 17:11:21 10° SW 17:14:59 67° NW 17:19:09 10° NE
NOSS 2-1 (D) 4.1 17:11:35 10° NNW 17:15:23 41° NE 17:20:31 10° ESE
Okean O Rocket 3.4 17:14:26 10° ENE 17:16:04 12° NE 17:17:42 10° NNE
Meteor 2-5 Rocket 3.8 17:15:06 10° S 17:20:58 87° E 17:26:46 10° NNE
Cosmos 1656 4.1 17:16:16 10° SW 17:21:43 64° WNW 17:27:10 10° NNE
CZ-2C R/B 3.7 17:16:46 10° N 17:22:03 50° WNW 17:27:24 10° SW
Cosmos 2082 3.7 17:16:46 10° NNW 17:22:23 64° ENE 17:27:57 10° SE
Cosmos 1544 Rocket 3.9 17:20:27 10° N 17:24:33 40° ENE 17:28:38 10° SE
Cosmos 2228 4.3 17:21:47 10° NNE 17:24:51 19° ENE 17:27:54 10° ESE
SL-08 R/B 3.5 17:20:01 10° NNE 17:24:53 60° ESE 17:29:46 10° S
DELTA 2 DEB (DPAF) 4.2 17:22:20 10° NNE 17:26:40 55° ESE 17:30:57 10° S
ATLAS 2AS CENTAUR R/B 3.4 17:20:46 10° NW 17:27:23 36° NNE 17:33:38 10° E
Cosmos 2279 Rocket 4.0 17:25:29 10° S 17:31:36 71° E 17:37:48 10° NNE
H-2A R/B 4.3 17:29:22 10° SSW 17:33:50 30° W 17:38:28 10° NNW
ISS -3.6 17:30:47 10° WNW 17:34:08 61° N 17:37:02 13° E
CZ-4B R/B 3.9 17:33:01 10° ESE 17:37:33 29° ENE 17:42:09 10° N
Cosmos 1455 Rocket 3.3 17:33:37 10° NNW 17:37:59 73° W 17:42:18 10° S
Cosmos 1867 3.7 17:36:21 10° NW 17:41:51 84° SW 17:47:18 10° SE
ATLAS CENTAUR R/B 2.8 17:38:35 10° S 17:42:26 25° ESE 17:45:16 15° ENE
Cosmos 614 Rocket 4.0 17:37:24 10° SSW 17:42:38 85° ESE 17:47:52 10° NNE
SMAP 4.3 17:38:24 10° S 17:42:53 47° W 17:47:25 10° NNW
NOSS 3-4 (A) 4.1 17:37:07 10° NW 17:43:59 76° SW 17:51:49 10° SSE
NOSS 3-4 (C) 4.1 17:37:13 10° NW 17:44:05 77° SW 17:51:56 10° SSE
Cosmos 1269 Rocket 4.3 17:39:29 10° SSW 17:44:46 72° WNW 17:50:05 10° NNE
Cosmos 407 Rocket 4.4 17:42:06 10° SSE 17:46:21 27° E 17:50:15 12° NE
Cosmos 1844 Rocket 3.9 17:42:09 10° N 17:46:24 22° NE 17:49:18 15° ENE
Cosmos 2360 4.3 17:42:00 10° SSW 17:47:42 82° WNW 17:53:27 10° NNE
SKYMED 2 3.7 17:45:27 10° NNE 17:49:43 51° E 17:53:56 10° S
NOAA 6 4.3 17:46:46 10° S 17:51:53 73° WSW 17:57:05 10° NNW
Tiangong 0.7 17:51:04 10° SW 17:52:48 14° SSW 17:54:31 10° SSE
Meteor 2-17 Rocket 4.4 17:47:21 10° N 17:53:33 80° E 17:59:43 10° SSE
NOSS 3-3 (A) 4.5 17:48:04 10° WSW 17:53:44 56° NW 18:00:25 10° NE
NOSS 3-3 (C) 4.5 17:48:10 10° WSW 17:53:50 57° NW 18:00:30 10° NE
SL-4 R/B 2.2 17:53:09 10° SW 17:56:29 45° SSE 17:58:33 21° E
Cosmos 1340 Rocket 3.3 17:55:47 10° SSE 17:59:19 36° E 18:02:48 11° NNE
Cosmos 1408 3.4 17:57:02 10° SSE 17:59:53 25° E 18:00:41 23° ENE
USA 290 3.1 17:58:11 10° S 18:01:04 30° ESE 18:02:01 25° ENE
BREEZE-M DEB (TANK) 3.1 18:00:19 10° WSW 18:03:18 50° SSE 18:07:22 18° E
Cosmos 1238 Rocket 4.2 18:02:06 10° NNW 18:06:26 53° W 18:11:35 10° S
PAYLOAD B 4.2 18:03:25 10° SSE 18:08:53 67° ENE 18:14:22 10° N
Cosmos 1655 Rocket 3.9 18:02:59 10° N 18:09:18 77° E 18:15:32 10° SSE
NOSS 2-1 (E) 3.8 18:05:29 10° NW 18:09:44 84° NE 18:15:49 10° SE
YAOGAN 1 2.7 18:05:50 10° SE 18:09:59 49° ENE 18:14:11 10° N
Cosmos 2322 Rocket 3.7 18:07:12 10° SE 18:09:28 15° ESE 18:09:28 15° ESE
Cosmos 1607 4.1 18:05:43 10° SSW 18:11:38 53° ESE 18:16:06 18° NE
Cosmos 1140 Rocket 3.7 18:06:45 10° S 18:11:45 50° ESE 18:16:04 14° NE
Cosmos 2227 Rocket 4.4 18:07:10 10° NW 18:11:56 28° WSW 18:16:38 10° SSW
SL-08 ROCKET BODY 4.4 18:06:47 10° N 18:12:35 52° ENE 18:18:16 10° SSE
Cosmos 1703 3.5 18:08:50 10° SSW 18:12:37 68° W 18:16:28 10° N
Cosmos 1975 Rocket 4.3 18:12:05 10° SSW 18:16:22 44° WNW 18:20:39 10° N
CZ-4 R/B 1.9 18:12:44 10° SE 18:16:33 37° ENE 18:20:21 10° N
Cosmos 1184 Rocket 2.7 18:14:58 10° N 18:16:38 37° N 18:16:38 37° N
Cosmos 1536 Rocket 3.4 18:15:46 10° S 18:20:01 63° E 18:24:19 10° NNE
SL-16 R/B 3.1 18:15:47 10° SSE 18:20:28 27° ESE 18:21:31 26° E
Cosmos 1023 Rocket 4.4 18:16:18 10° S 18:21:23 62° ESE 18:25:41 15° NNE
COSMOS 2455 2.8 18:17:02 10° SSW 18:23:03 86° SE 18:28:06 15° NE
Cosmos 2369 3.8 18:23:27 10° SSW 18:29:06 80° WNW 18:34:31 12° NNE
Cosmos 44 3.1 18:25:03 10° SW 18:29:23 77° NW 18:32:00 24° NE
Cosmos 1892 3.4 18:26:52 10° SSE 18:29:27 33° SE 18:29:27 33° SE
Cosmos 1606 Rocket 3.6 18:28:57 10° N 18:33:09 48° ENE 18:35:45 21° SE
RESURS DK-1 4.1 18:31:22 10° N 18:33:19 18° NNE 18:33:19 18° NNE
NOAA 15 4.5 18:29:59 10° SSE 18:35:14 83° ENE 18:40:31 10° NNW
Cosmos 2251 Rocket 3.5 18:30:03 10° SSW 18:35:24 89° ESE 18:40:21 13° NNE
Cosmos 468 Rocket 4.3 18:32:01 10° NNW 18:36:57 41° ENE 18:37:59 37° E
COSMO-SKYMED 1 3.2 18:33:30 10° N 18:37:47 55° WNW 18:42:01 10° SSW
Cosmos 1980 Rocket 2.5 18:34:48 10° SW 18:40:26 68° WNW 18:45:36 13° NNE
Meteor 1-11 4.4 18:37:55 10° S 18:43:33 52° E 18:49:10 10° NNE
Lacrosse 5 3.7 18:40:38 10° SSE 18:42:19 15° SSE 18:42:19 15° SSE
Cosmos 1241 Rocket 4.5 18:38:35 10° SSW 18:45:03 76° SE 18:49:05 25° NE
Cosmos 1328 3.8 18:41:37 10° SSW 18:45:37 83° W 18:48:48 16° N
BlueWalker 3 1.8 18:42:28 10° WSW 18:46:22 89° SSE 18:46:49 69° ENE
Lacrosse 5 rocket 2.3 18:45:36 10° NW 18:48:24 28° N 18:48:24 28° N
Cosmos 1697 Rocket 4.1 18:43:36 10° WSW 18:48:47 35° NW 18:53:58 10° NNE
PSLV R/B 4.4 18:46:23 10° S 18:49:56 53° W 18:53:33 10° NNW
CSL-04 Rocket 3.9 18:50:17 42° ENE 18:50:20 42° ENE 18:55:22 10° N
Okean O Rocket 1.4 18:47:20 10° SSE 18:51:38 77° ENE 18:56:03 10° NNW
IRIDIUM 103 4.4 18:47:28 10° N 18:52:35 52° E 18:54:30 34° SE
Feng Yun 1-1 Rocket 4.1 18:49:02 10° SSE 18:54:39 74° ENE 19:00:09 10° NNW
Cosmos 2263 Rocket 3.4 18:52:35 10° NW 18:57:47 41° WSW 19:02:57 10° S
Timation 2 Rocket 4.4 18:52:30 10° NW 18:58:35 61° WSW 19:04:52 10° SSE
MINOTAUR 4 R/B 4.3 18:59:27 59° SW 18:59:27 59° SW 19:02:18 10° SSW
ATLAS 5 CENTAUR R/B 3.5 18:57:22 10° WNW 19:00:16 19° NNW 19:01:38 17° N
BREEZE M DEB (TANK) 4.2 18:56:54 10° W 19:00:39 25° SW 19:01:26 22° SSW
Cosmos 1553 Rocket 4.0 18:56:12 10° SSE 19:02:01 51° E 19:07:56 10° NNE
Cosmos 2228 3.9 18:58:31 10° NNW 19:02:38 49° W 19:06:41 10° SSW
Cosmos 1763 Rocket 3.3 18:59:21 10° NNW 19:04:35 79° ENE 19:05:58 50° SE
Cosmos 1726 Rocket 3.6 19:03:29 10° N 19:07:07 61° N 19:07:07 61° N
Cosmos 1943 Rocket 4.5 19:08:28 10° NNE 19:08:37 10° NNE 19:08:37 10° NNE
IRIDIUM 106 4.2 19:05:42 10° N 19:10:57 73° E 19:12:35 44° SSE
ISS -2.4 19:07:35 10° WNW 19:09:56 40° W 19:09:56 40° W
Cosmos 841 Rocket 4.5 19:06:17 10° NNW 19:09:45 33° NNE 19:09:45 33° NNE
SL-08 R/B 4.3 19:06:13 10° N 19:12:26 73° ENE 19:17:34 16° SSE
CZ-4B R/B 3.9 19:12:42 10° S 19:17:52 51° W 19:23:08 10° NNW
ATLAS 2AS CENTAUR R/B 2.6 19:11:59 10° NW 19:19:07 87° SW 19:21:32 44° SE
ATLAS CENTAUR R/B 2.0 19:16:04 10° SW 19:20:44 59° NW 19:21:07 57° NNW
Cosmos 1844 3.6 19:21:55 10° NNW 19:27:34 73° NE 19:27:34 73° NE
Cosmos 407 Rocket 4.2 19:23:03 10° SW 19:28:04 50° WNW 19:30:30 28° N
Cosmos 1844 Rocket 2.5 19:25:30 10° NNW 19:31:01 86° NNE 19:31:01 86° NNE
Cosmos 2278 4.2 19:26:06 10° SW 19:31:40 56° NW 19:34:06 33° N
SL-4 R/B 3.8 19:32:08 10° W 19:33:53 27° W 19:33:53 27° W
Cosmos 540 Rocket 3.8 19:31:13 10° NNW 19:35:25 60° NNW 19:35:25 60° NNW
Cosmos 1190 Rocket 4.5 19:36:32 10° SW 19:41:47 59° WNW 19:42:31 54° NNW
Cosmos 2360 Rocket 4.2 19:40:18 10° S 19:41:22 16° S 19:41:22 16° S
Cosmos 2278 Rocket 4.1 19:41:45 10° NNW 19:43:40 17° N 19:43:40 17° N
Meteor 1-27 4.5 19:43:18 10° NNW 19:49:07 69° W 19:49:42 64° SW
CZ-4 R/B 3.6 19:48:05 10° SSW 19:51:31 25° W 19:54:57 10° NW
Cosmos 2322 Rocket 3.2 19:48:08 10° SSW 19:51:22 36° SSW 19:51:22 36° SSW
SL-16 R/B 2.8 19:58:38 10° SW 20:03:28 53° W 20:03:28 53° W
COSMOS 2455 4.4 20:04:34 10° W 20:09:44 28° NNW 20:11:17 25° N
Cosmos 1980 Rocket 4.4 20:21:41 10° WNW 20:25:34 18° NW 20:27:24 16° NNW
Lacrosse 5 4.5 20:21:10 10° SW 20:21:35 12° SW 20:21:35 12° SW
